Weather History for Cross City, FL

Change the Weather History Date:

Monday, May 27, 2013

  Actual Average Record
Temperature  
Mean Temperature 73 °F 78 °F  
Max Temperature 90 °F 90 °F 93 °F (2000)
Min Temperature 55 °F 65 °F 55 °F (2007)
Degree Days  
Heating Degree Days 0 0  
Month to date heating degree days 9 0  
Since 1 July heating degree days 1133 1303  
Cooling Degree Days 8 12  
Month to date cooling degree days 192 246  
Year to date cooling degree days 477 428  
Growing Degree Days 22 (Base 50)    
Moisture  
Dew Point 58 °F    
Average Humidity 58    
Maximum Humidity 93    
Minimum Humidity 29    
Precipitation  
Precipitation 0.00 in 0.11 in 0.20 in (1998)
Month to date precipitation 4.84 2.07  
Year to date precipitation 12.38 16.55  
Sea Level Pressure  
Sea Level Pressure 30.16 in    
Wind  
Wind Speed 4 mph (ESE)    
Max Wind Speed 10 mph    
Max Gust Speed 16 mph    
T = Trace of Precipitation, MM = Missing Value Source: NWS Daily Summary

Daily Weather History Graph

Daily Weather History Graph

Search for Another Location

Airport:

Trip Planner

Search our weather history database for the weather conditions in past years. The results will help you decide how hot, cold, wet, or windy it might be!

Date:

Astronomy

May. 27, 2013 Rise Set
Actual Time 6:33 AM EDT 8:25 PM EDT
Civil Twilight 6:07 AM EDT 8:52 PM EDT
Nautical Twilight 5:35 AM EDT 9:24 PM EDT
Astronomical Twilight 5:00 AM EDT 9:58 PM EDT
Moon 11:09 PM EDT 9:07 AM EDT
Length of Visible Light 14h 45m
Length of Day
13h 51m
Waning Gibbous, 91% of the Moon is Illuminated
May 27
Waning Gibbous
May 31
Last Quarter
Jun 8
New
Jun 16
First Quarter
Jun 23
Full

Hourly Weather History & Observations

Time (EDT) Temp. Heat Index Dew Point Humidity Pressure Visibility Wind Dir Wind Speed Gust Speed Precip Events Conditions
12:53 AM 68.0 °F - 55.9 °F 65% 30.19 in - Calm Calm - N/A   Unknown
1:53 AM 66.0 °F - 55.9 °F 70% 30.19 in - Calm Calm - N/A   Unknown
2:53 AM 63.0 °F - 55.9 °F 78% 30.18 in - Calm Calm - N/A   Unknown
3:53 AM 59.0 °F - 55.9 °F 90% 30.17 in - Calm Calm - N/A   Unknown
4:53 AM 57.9 °F - 54.0 °F 87% 30.17 in - Calm Calm - N/A   Unknown
5:53 AM 55.9 °F - 53.1 °F 90% 30.17 in - Calm Calm - N/A   Unknown
6:53 AM 55.0 °F - 52.0 °F 89% 30.18 in - Calm Calm - N/A   Unknown
7:53 AM 63.0 °F - 57.9 °F 84% 30.19 in - Calm Calm - 0.01 in   Unknown
8:53 AM 72.0 °F - 61.0 °F 68% 30.21 in - Variable 3.5 mph - N/A   Unknown
9:53 AM 77.0 °F - 63.0 °F 62% 30.20 in - Variable 4.6 mph - N/A   Unknown
10:53 AM 79.0 °F - 60.1 °F 52% 30.20 in - Variable 4.6 mph - N/A   Unknown
11:53 AM 82.9 °F 82.4 °F 57.0 °F 41% 30.20 in - Variable 4.6 mph - N/A   Unknown
12:53 PM 84.9 °F 83.6 °F 55.0 °F 36% 30.19 in - Variable 5.8 mph - N/A   Unknown
1:53 PM 88.0 °F 86.5 °F 55.9 °F 34% 30.17 in - Calm Calm - N/A   Unknown
2:53 PM 89.1 °F 86.9 °F 54.0 °F 30% 30.14 in - ESE 9.2 mph - N/A   Unknown
3:53 PM 90.0 °F 88.1 °F 55.9 °F 31% 30.12 in - ESE 8.1 mph - N/A   Unknown
4:53 PM 88.0 °F 86.1 °F 55.0 °F 32% 30.10 in - Variable 6.9 mph - N/A   Unknown
5:53 PM 89.1 °F 87.3 °F 55.9 °F 32% 30.09 in - ESE 8.1 mph - N/A   Unknown
6:53 PM 87.1 °F 85.7 °F 55.9 °F 35% 30.08 in - Variable 5.8 mph - N/A   Unknown
7:53 PM 82.0 °F 83.8 °F 64.9 °F 56% 30.09 in - West 3.5 mph - N/A   Unknown
8:53 PM 75.9 °F - 64.9 °F 69% 30.11 in - Calm Calm - N/A   Unknown
9:53 PM 78.1 °F - 57.9 °F 50% 30.13 in - East 4.6 mph - N/A   Unknown
10:53 PM 75.0 °F - 60.1 °F 60% 30.15 in - East 4.6 mph - N/A   Unknown
11:53 PM 73.0 °F - 60.1 °F 64% 30.16 in - East 5.8 mph - N/A   Unknown